Dewpoint
52 38 39 24 15 8 4 0 14 21 26 36 41 40 39 45 47 49 63 65 67 67 70 72 76 77 77 77 76 76 76 75 75 75 76 76 76 76 76 76 74 73 72 73 72 71 68 66 65
38 41 33 18 7 3 -0 3 13 11 26 28 28 42 39 41 47 53 60 67 68 68 71 69 76 76 77 77 76 76 76 75 75 75 76 76 76 76 75 75 74 73 73 73 71 69 66 65 65
41 44 23 12 9 4 2 5 6 10 20 21 21 25 37 46 55 62 65 68 70 70 69 67 76 76 76 77 76 76 76 75 76 76 76 76 75 75 75 75 74 74 73 72 70 67 65 64 64
35 31 22 14 5 8 8 8 14 13 11 14 15 14 21 53 54 54 65 68 70 69 68 72 75 75 76 76 76 76 76 76 76 76 76 75 75 75 75 75 75 74 72 71 69 66 64 64 64
34 28 15 14 7 7 15 12 17 15 14 14 16 14 21 45 33 34 56 67 68 68 67 70 75 75 76 76 76 76 76 76 76 76 76 75 75 75 75 75 74 73 72 70 68 65 64 64 65
22 24 11 5 5 18 19 21 21 18 16 18 18 20 23 47 34 31 48 59 67 68 68 70 74 75 75 76 76 76 75 76 76 75 75 75 75 75 75 75 74 73 72 70 67 65 65 66 67
22 19 7 6 12 17 18 24 20 19 20 18 20 24 23 43 36 30 53 61 66 68 68 69 68 73 75 75 75 75 75 75 75 74 74 75 75 75 75 75 74 73 71 68 67 65 65 67 70
22 19 11 13 11 15 17 22 20 21 19 20 22 20 21 29 30 26 46 59 65 68 67 68 67 65 68 70 75 75 75 75 74 74 75 75 75 74 74 74 74 72 70 67 66 66 67 70 72
21 10 5 6 6 9 13 17 17 20 19 19 18 21 26 27 24 25 32 55 65 68 68 67 64 63 63 63 70 74 74 75 75 74 74 73 63 68 71 71 72 70 69 67 67 67 69 71 72
20 12 7 11 11 14 15 19 19 18 19 15 13 18 22 22 27 26 26 44 58 69 68 67 65 63 61 60 67 65 66 66 66 66 69 63 63 66 64 69 70 69 68 68 68 69 70 70 65
25 17 20 20 22 23 23 24 22 22 22 23 20 21 22 23 28 26 24 31 50 63 69 67 68 66 63 61 64 61 61 63 65 67 69 66 64 67 64 62 59 61 66 59 63 64 63 65 67
22 22 24 22 22 23 22 23 22 23 24 24 24 25 26 27 27 24 24 26 40 58 69 69 68 67 66 63 64 61 60 61 63 65 70 67 65 67 62 58 56 60 56 63 65 62 68 69 69
26 23 24 25 25 24 24 24 22 19 19 19 22 26 28 32 31 31 32 34 37 54 65 69 70 70 68 67 65 63 64 63 64 66 69 65 63 66 63 61 56 55 58 63 65 65 69 69 65
29 29 29 29 28 27 25 21 21 23 22 20 22 25 25 27 33 33 35 36 43 53 63 69 70 71 69 68 68 66 65 66 64 64 66 66 64 67 61 61 57 59 63 64 65 66 68 67 65
30 28 27 25 23 22 25 26 25 25 25 22 23 25 28 32 33 36 35 39 41 53 63 67 72 72 72 69 68 67 65 63 64 63 67 66 67 68 63 56 62 64 67 69 70 69 67 65 63
28 29 23 25 28 28 28 22 23 27 27 27 26 25 26 30 32 34 38 40 45 49 60 67 67 71 72 70 69 66 65 63 63 63 66 67 67 67 65 60 64 66 68 67 66 65 64 64 62
29 22 24 25 27 29 29 25 27 30 30 31 32 33 33 32 31 38 38 38 43 53 58 65 69 70 71 71 69 68 69 65 63 63 63 67 65 63 62 61 65 71 66 65 64 65 66 65 64
24 25 26 26 26 27 27 27 29 30 31 32 33 34 34 36 36 36 39 39 44 56 63 66 70 72 73 71 70 67 65 64 63 62 61 67 63 61 65 65 68 69 65 65 65 67 66 65 62
30 29 27 28 27 29 30 30 31 33 33 34 34 35 36 38 39 40 38 40 45 58 66 69 71 73 72 70 69 66 64 63 63 62 63 65 63 63 68 65 70 69 66 66 68 66 66 63 63
30 29 28 29 29 32 32 32 33 34 35 35 35 35 37 39 40 39 41 41 47 53 67 70 71 73 72 70 70 66 65 63 63 63 65 65 64 65 65 69 69 70 65 69 68 68 64 62 60
30 30 30 31 32 33 32 31 31 33 33 32 33 34 36 38 39 39 38 43 46 51 63 69 71 73 72 72 70 68 67 65 63 63 64 65 64 67 68 70 69 70 67 66 68 68 66 62 59
29 30 32 32 33 30 34 32 33 32 32 29 34 36 36 35 38 39 39 41 47 50 60 68 71 72 72 73 70 70 65 62 62 64 64 65 65 64 68 71 70 70 66 68 67 64 65 63 60
31 33 34 35 34 36 32 33 32 31 29 31 34 39 41 39 38 36 38 37 38 46 58 66 70 72 73 71 71 67 67 63 64 63 69 69 69 67 68 70 70 69 65 67 64 63 62 59 58
33 35 35 36 34 36 31 30 29 30 35 35 38 42 42 41 41 38 36 38 36 40 54 62 68 72 71 70 71 70 70 67 63 65 65 63 65 67 68 68 68 67 65 64 61 62 60 59 56
33 37 35 34 34 25 32 33 32 37 39 40 41 42 41 41 38 36 34 33 34 37 50 62 68 69 70 70 69 68 70 71 70 68 64 64 63 66 69 68 67 64 63 61 60 60 60 59 56
34 38 35 29 31 29 31 35 37 40 42 43 44 44 43 40 31 32 33 33 31 37 53 64 66 67 68 68 68 69 68 64 64 67 61 60 63 66 68 66 64 62 60 59 59 60 55 58 56
33 36 38 35 38 35 33 36 40 40 41 43 45 46 46 45 38 32 31 32 34 40 56 64 65 67 66 67 68 69 68 68 64 68 70 66 69 66 66 64 62 60 58 57 59 56 57 55 54
34 37 35 38 32 32 25 33 36 38 42 45 45 47 49 49 41 38 31 34 35 45 58 64 65 65 66 67 67 67 68 67 69 69 69 68 67 65 63 61 59 58 56 56 58 55 54 53 49
29 32 37 39 38 32 33 32 40 42 44 45 46 47 48 49 44 34 32 32 39 49 58 63 65 66 65 67 68 68 67 69 68 67 67 66 66 63 60 58 56 55 55 56 56 54 51 51 49
30 31 36 36 36 38 36 36 40 45 44 44 45 47 49 51 45 36 32 35 46 57 60 65 65 65 66 68 68 68 70 68 66 64 63 62 61 59 57 56 54 54 54 54 51 48 47 45 45
Lifted_Index
10 11 11 9 7 5 4 4 5 5 5 4 3 3 2 1 -1 -2 -3 -3 -3 -3 -2 -2 -3 -3 -3 -3 -3 -3 -3 -2 -2 -2 -2 -3 -3 -3 -4 -3 -2 -2 -2 -2 -1 0 2 3 3
11 10 10 9 6 4 4 5 5 5 6 5 5 4 3 1 -0 -2 -3 -3 -4 -3 -2 -2 -2 -3 -3 -3 -3 -3 -3 -2 -2 -2 -2 -3 -3 -3 -3 -3 -3 -2 -2 -2 -1 0 2 3 3
11 10 10 8 6 4 5 6 6 6 7 7 6 5 4 2 -0 -2 -3 -4 -4 -4 -2 -1 -2 -3 -3 -3 -3 -4 -3 -3 -3 -3 -3 -3 -3 -3 -3 -3 -3 -3 -3 -2 -1 1 2 3 3
11 10 9 7 6 6 7 8 8 7 7 7 7 6 5 3 2 1 -1 -4 -5 -4 -3 -2 -2 -3 -4 -4 -3 -3 -3 -3 -3 -3 -3 -3 -3 -3 -3 -4 -4 -3 -3 -2 -0 1 2 3 3
11 10 8 6 6 7 9 10 9 9 8 8 8 7 6 5 5 5 1 -3 -5 -4 -3 -2 -3 -3 -4 -4 -3 -3 -3 -3 -4 -4 -3 -3 -3 -3 -3 -4 -4 -3 -3 -1 0 1 2 3 2
11 9 6 5 7 9 10 10 10 10 9 9 8 8 7 6 7 7 3 -1 -4 -4 -3 -3 -3 -3 -4 -4 -3 -3 -3 -3 -4 -4 -4 -3 -3 -3 -4 -4 -4 -4 -2 -1 0 2 2 2 2
11 9 7 6 7 9 10 11 11 11 10 10 9 8 7 6 7 7 4 -1 -4 -4 -4 -3 -2 -2 -3 -3 -3 -3 -3 -3 -3 -4 -4 -3 -3 -4 -4 -4 -4 -3 -2 -1 1 2 2 1 1
11 10 8 7 8 10 11 12 12 12 11 11 10 9 8 8 9 9 5 -0 -3 -5 -4 -3 -2 -1 -1 -2 -3 -3 -3 -3 -3 -3 -3 -3 -3 -3 -3 -3 -3 -3 -2 -0 1 2 1 0 -1
12 10 9 10 11 11 12 12 13 13 12 12 12 11 10 10 10 10 6 2 -3 -4 -5 -4 -2 -0 0 -0 -1 -2 -2 -2 -2 -3 -3 -2 -1 -1 -2 -2 -2 -2 -1 -0 1 1 0 -1 -2
12 11 11 12 13 13 13 13 13 13 13 13 12 12 11 11 10 10 8 4 -1 -4 -5 -4 -3 -1 0 0 -0 -1 -1 -1 -1 -1 -1 -1 -0 -1 -1 -1 -1 -1 -1 -0 0 0 -0 -2 -3
12 12 12 13 13 13 13 13 13 13 13 13 12 12 12 11 11 10 9 7 2 -2 -4 -4 -3 -2 -0 -0 -0 0 0 0 -0 -1 -1 -1 -1 -1 -1 0 1 1 1 0 -0 -1 -2 -3 -4
11 12 11 11 11 11 11 11 12 12 13 13 12 12 12 11 11 10 10 8 5 0 -3 -4 -4 -3 -2 -1 -1 -0 0 -0 -1 -1 -2 -1 -1 -1 -0 1 2 2 1 -1 -1 -2 -3 -4 -4
10 10 9 8 8 8 8 9 10 11 12 12 13 12 12 11 10 10 10 9 6 2 -2 -4 -4 -4 -3 -2 -1 -1 -1 -1 -1 -2 -2 -2 -1 -1 -0 1 2 1 -0 -2 -3 -3 -4 -4 -3
8 8 7 6 6 6 6 7 7 8 9 11 11 12 12 11 10 10 10 9 7 3 -1 -3 -4 -5 -4 -3 -2 -2 -2 -1 -1 -1 -2 -1 -1 -1 0 1 1 -0 -2 -3 -4 -4 -4 -3 -3
6 6 5 5 5 6 5 5 5 5 6 8 9 10 11 10 10 9 9 9 7 4 0 -3 -4 -5 -4 -4 -3 -2 -2 -1 -1 -1 -1 -1 -1 -1 1 1 -0 -2 -3 -4 -4 -4 -3 -3 -2
5 4 4 4 4 5 5 4 4 4 5 5 6 7 9 9 10 9 9 9 7 5 1 -2 -4 -5 -5 -4 -3 -3 -2 -1 -1 -1 -1 -1 -1 0 1 0 -2 -3 -4 -4 -4 -3 -3 -2 -2
3 3 3 4 4 4 4 4 3 3 4 4 4 5 6 7 9 9 9 8 7 4 1 -2 -4 -5 -5 -5 -4 -3 -2 -1 -0 -0 -0 -0 -0 0 0 -1 -3 -4 -4 -3 -3 -3 -3 -2 -2
3 3 4 4 4 4 4 4 3 3 3 3 3 4 4 5 6 8 8 8 6 3 0 -2 -4 -5 -5 -5 -4 -3 -2 -1 -0 0 -0 -0 0 1 -0 -2 -3 -4 -3 -3 -3 -3 -2 -2 -2
4 4 4 4 3 3 3 3 2 2 2 3 3 3 3 4 4 5 7 8 6 2 -1 -3 -4 -5 -5 -5 -4 -4 -3 -1 -1 -0 -0 -0 0 1 -0 -2 -4 -4 -3 -3 -3 -3 -2 -1 -1
4 4 4 3 3 3 3 3 2 2 3 3 3 3 3 3 3 4 5 6 6 3 -2 -4 -5 -6 -6 -5 -5 -4 -3 -2 -1 -1 -1 -0 0 0 -1 -3 -4 -4 -3 -3 -3 -3 -2 -1 -1
3 3 3 3 3 2 2 2 2 2 3 3 3 3 3 3 3 3 4 5 5 3 -1 -4 -6 -6 -6 -6 -5 -4 -3 -2 -1 -1 -1 -0 0 0 -2 -3 -4 -4 -3 -3 -3 -2 -2 -1 -1
3 3 3 2 2 2 2 2 2 2 2 3 2 2 2 2 2 3 3 4 4 3 -0 -4 -6 -6 -7 -6 -5 -4 -3 -3 -2 -2 -2 -1 -0 -1 -2 -4 -4 -3 -3 -2 -2 -2 -2 -1 -1
3 3 2 2 1 1 1 1 1 1 2 2 1 1 0 1 2 2 2 3 3 2 -0 -3 -5 -6 -7 -6 -6 -5 -4 -3 -2 -2 -2 -2 -1 -2 -2 -3 -3 -3 -2 -2 -1 -2 -2 -1 -0
3 2 2 1 1 1 1 1 1 1 1 1 1 0 -1 -1 0 2 2 2 3 2 -0 -3 -5 -6 -6 -6 -6 -5 -4 -4 -3 -3 -2 -2 -2 -2 -2 -2 -2 -2 -1 -1 -1 -2 -1 -0 0
2 2 1 1 0 0 1 1 1 1 1 1 0 -1 -2 -2 -1 1 2 2 3 2 -0 -3 -5 -5 -6 -6 -6 -5 -4 -4 -4 -3 -2 -2 -2 -3 -2 -2 -2 -1 -1 -1 -2 -1 -0 1 1
1 1 1 1 0 1 1 1 1 1 1 -0 -1 -2 -3 -3 -1 0 1 2 2 1 -2 -4 -5 -5 -5 -5 -5 -5 -4 -4 -4 -3 -2 -2 -3 -3 -2 -2 -2 -1 -1 -1 -1 -1 1 2 3
1 1 1 1 1 1 1 1 1 1 1 -1 -2 -2 -3 -3 -2 -0 1 2 1 -0 -3 -5 -5 -5 -5 -5 -5 -5 -4 -4 -3 -3 -3 -3 -3 -2 -2 -2 -2 -2 -1 -1 -1 1 2 4 5
1 1 1 1 1 1 0 1 1 1 1 -0 -1 -2 -3 -4 -3 -1 1 1 0 -2 -5 -6 -6 -6 -5 -5 -5 -5 -4 -4 -3 -3 -3 -3 -2 -2 -2 -2 -2 -2 -2 -1 0 2 4 5 6
1 1 1 1 1 0 0 1 1 2 1 0 -0 -1 -3 -5 -4 -2 0 1 -1 -4 -6 -7 -7 -6 -5 -5 -5 -5 -4 -4 -3 -2 -2 -2 -2 -2 -2 -2 -2 -2 -1 0 2 4 5 6 7
1 1 1 1 1 0 0 1 1 2 1 1 0 -1 -3 -5 -5 -2 -0 -0 -3 -5 -7 -8 -8 -6 -5 -5 -5 -5 -5 -3 -2 -1 -1 -1 -1 -2 -2 -2 -2 -1 0 2 4 5 6 7 8